Regional Weather Roundup
Issued by NWS

Home | Current Version | Previous Version | Graphics & Text | Print | Product List | Glossary On
Versions: 1 2 3 4 5 6 7 8 9 10 11 12 13 14 15 16 17 18 19 20 21 22 23 24 25 26 27 28 29 30 31 32 33 34 35 36 37 38 39 40 41 42 43 44 45 46 47 48 49 50
000
ASUS43 KLOT 260208
RWRIL

ILLINOIS REGIONAL WEATHER ROUNDUP
NATIONAL WEATHER SERVICE CHICAGO/ROMEOVILLE IL
900 PM CDT MON JUL 25 2016

NOTE: "FAIR" INDICATES FEW OR NO CLOUDS BELOW 12,000 FEET WITH NO
SIGNIFICANT WEATHER AND/OR OBSTRUCTIONS TO VISIBILITY.

* THESE STATIONS ARE NOT UNDER NWS QUALITY CONTROL. THEY ALSO MAY NOT
  REPORT WEATHER SUCH AS PRECIPITATION OR FOG.

ILZ001-002-007-009-015-016-024-260300-
NORTHWEST ILLINOIS

CITY           SKY/WX    TMP DP  RH WIND       PRES   REMARKS
MOLINE         CLEAR     78  64  61 CALM      30.02R HX  80
STERLING*      CLOUDY    74  67  78 CALM      30.02R
SAVANNA*       CLEAR     76  66  71 CALM      30.01S
$$

ILZ003-004-008-010-011-017-018-260300-
NORTH CENTRAL ILLINOIS

CITY           SKY/WX    TMP DP  RH WIND       PRES   REMARKS
ROCKFORD       CLOUDY    80  63  55 W6        30.02R HX  81
FREEPORT*      CLEAR     73  66  79 CALM      30.03S
ROCHELLE*      PTCLDY    75  68  78 CALM      30.02R
DE KALB*       PTCLDY    77  68  75 NW3       30.03R
$$

ILZ005-006-012>014-019>023-260300-
NORTHEAST ILLINOIS

CITY           SKY/WX    TMP DP  RH WIND       PRES   REMARKS
CHICAGO-OHARE  PTCLDY    78  64  61 CALM      29.99R HX  80
CHICAGO-MIDWAY MOCLDY    81  60  48 E6        29.99R HX  82
AURORA         CLOUDY    75  71  87 W5        30.01R
LANSING*       CLOUDY    78  61  55 E3        30.00R HX  80
JOLIET*        PTCLDY    78  70  76 CALM      30.00R HX  81
WAUKEGAN       CLEAR     70  64  81 CALM      30.00R
DUPAGE AIRPORT CLOUDY    79  64  60 NW7       30.00R HX  81
KANKAKEE*      CLOUDY    78  71  78 CALM      30.01S HX  80
WHEELING       CLEAR     78  63  59 CALM      30.01R HX  80
MORRIS*        MOCLDY    74  71  92 CALM      29.99R
ROMEOVILLE*    PTCLDY    75  66  74 N3        30.01R
NORTHERLY ISL    N/A     73  67  81 CALM        N/A
$$

LMZ740>746-260300-
SOUTHERN LAKE MICHIGAN

STATION/POSITION SKY/WX   TEMP    WIND        PRES    VSBY  WAVE
                          AIR SEA DIR/SP/G                  HT/PER
                          (F)     (DEG/KT/KT) (MB)    (MI)  (FT/S)
SOUTHERN BUOY              75 74  180/  6/  6 1015.3R         0
WILMETTE HARBOR            72 71  100/  2/  4   N/A           1
HARRISON CRIB              76     160/  4/  4   N/A
BURNHAM HARBOR             73      CALM  /  2   N/A
CALUMET HARBOR             76      90/  4/  5   N/A
BURNS HARBOR               78      60/  4/  5 1015.9S
MICHIGAN CITY              77      30/  5/  5   N/A
MICHIGAN CITY 6N           76 75   60/  4/  6   N/A           1
ST. JOSEPH                 78 77   40/  4/  6 1015.5R         1/ 4
$$

ILZ025>027-034>036-040-047-049-050-058-095>099-260300-
WEST-CENTRAL ILLINOIS

CITY           SKY/WX    TMP DP  RH WIND       PRES   REMARKS
QUINCY         PTCLDY    76  69  79 N5        30.03R
GALESBURG*     CLOUDY    74  69  85 CALM      30.03R
MACOMB*        CLOUDY    73  70  89 CALM      30.05R
JACKSONVILLE*  CLEAR     74  72  93 CALM      30.01S
PITTSFIELD*    PTCLDY    75  72  91 N3        30.03S
$$

ILZ028>032-037-038-041>044-048-051>054-059>061-260300-
CENTRAL ILLINOIS

CITY           SKY/WX    TMP DP  RH WIND       PRES   REMARKS
BLOOMINGTON    PTCLDY    76  70  82 N5        30.03R
DECATUR        PTCLDY    77  73  87 N5        30.01R
PEORIA         PTCLDY    77  71  82 CALM      30.02R
LACON*         PTCLDY    73  70  89 CALM      30.01R
LINCOLN*       PTCLDY    77  74  90 N3        30.01R
SPRINGFIELD    PTCLDY    77  72  84 N5        30.01R
TAYLORVILLE    PTCLDY    76  75  96 MISG      30.00S
$$

ILZ033-039-045-046-055>057-062-063-260300-
EAST-CENTRAL ILLINOIS

CITY           SKY/WX    TMP DP  RH WIND       PRES   REMARKS
CHAMPAIGN      PTCLDY    77  71  82 NE3       30.01R
RANTOUL*       PTCLDY    81  73  78 N3        30.01  HX  85
MATTOON        PTCLDY    77  72  84 CALM      29.99S
PARIS*         CLOUDY    77  76  95 CALM      30.00S
$$

ILZ079-100>102-260300-
SOUTHWEST ILLINOIS

CITY           SKY/WX    TMP DP  RH WIND       PRES   REMARKS
ALTON          MOCLDY    77  73  88 NW6       30.01R
BELLEVILLE     CLOUDY    81  79  94 CALM      29.98R HX  90
CAHOKIA*       LGT RAIN  81  75  82 E7        29.99R HX  87
SPARTA*        MOCLDY    81  77  88 CALM      29.99S HX  87
$$

ILZ064>066-069>071-074>076-080>082-084>086-088>090-092>094-260300-
SOUTH-CENTRAL ILLINOIS

CITY           SKY/WX    TMP DP  RH WIND       PRES   REMARKS
CARBONDALE     MOCLDY    78  75  90 CALM      29.98R HX  81
CAIRO*         CLOUDY    77  76  97 CALM      29.97S
EFFINGHAM*     CLOUDY    80  77  91 CALM      30.01R HX  85
MARION         MOCLDY    79  77  94 CALM      29.99S HX  83
MT. VERNON     CLOUDY    77  72  83 CALM      29.98R
CENTRALIA*     CLOUDY    80  79  97 CALM      29.98S HX  86
SALEM*         MOCLDY    80  78  91 CALM      29.99R HX  88
METROPOLIS*    MOCLDY    77  76  96 CALM      29.98S
$$

ILZ067-068-072-073-078-083-087-091-260300-
SOUTHEAST ILLINOIS

CITY           SKY/WX    TMP DP  RH WIND       PRES   REMARKS
LAWRENCEVILLE  CLOUDY    78  77  96 S3        29.99R HX  81
FLORA*         CLOUDY    79  76  90 CALM      29.98S HX  83
FAIRFIELD*     MOCLDY    76  75  99 CALM      29.97S
HARRISBURG*    MOCLDY    75  75 100 CALM      29.98S
ROBINSON*      CLOUDY    78  76  95 CALM      30.00R HX  80
CARMI*         CLOUDY    76  76 100 CALM      29.97R FOG
$$

ABBREVIATIONS USED IN REMARKS
   TC - TEMPERATURE IN CELSIUS
  WCI - WIND CHILL INDEX
   HX - HEAT INDEX
  VSB - VISIBILITY
$$




USA.gov is the U.S. government's official web portal to all federal, state and local government web resources and services.